Location: ?????
(31.8092°N, 35.2590°E)
Time: 11:30:40
(UTC+00:00)

Cosmos 1455 Rocket - Pass Details

Date: 17 October 2021
Orbit: 604 x 630 km, 82.5° (Epoch: 26 November)

Event Time Altitude Azimuth Distance (km) Brightness Sun altitude
Rises 02:40:07 0° 12° (NNE) 2,922 6.6 -14.2°
Reaches altitude 10° 02:42:53 10° 29° (NNE) 2,009 6.0 -13.7°
Maximum altitude 02:46:10 20° 77° (ENE) 1,455 6.0 -13.0°
Drops below altitude 10° 02:49:25 10° 125° (SE) 1,992 6.6 -12.3°
Sets 02:52:08 0° 142° (SE) 2,890 7.2 -11.7°
